Location: Doazon
(43.4500°N, 0.5500°W)
Time: 01:31:27
(UTC+00:00)

Cosmos 1697 Rocket - Pass Details

Date: 05 December 2025
Orbit: 831 x 843 km, 71.0° (Epoch: 17 January)

Event Time Altitude Azimuth Distance (km) Brightness Sun altitude
Rises 17:02:55 0° 148° (SSE) 3,360 5.7 -6.7°
Reaches altitude 10° 17:06:52 10° 120° (ESE) 2,433 4.8 -7.4°
Maximum altitude 17:09:06 13° 96° (E) 2,260 4.4 -7.8°
Drops below altitude 10° 17:11:21 10° 72° (ENE) 2,441 4.4 -8.1°
Enters shadow 17:11:29 10° 71° (ENE) 2,463 4.4 -8.2°
